This demonstration page uses our WeatherBlox Daily Observations layout. Learn more.

Left ArrowRight Arrow

39.92423, -83.80882

Hourly Observations for March 7, 2019

Temp ( °F °C ) Dew Point ( °F °C ) Humidity (%) Winds ( mph kmh ) Pressure ( in mb ) Visibility ( mi km ) Precip ( " mm )
12:56 am 00:56 Clear 21 -6.1 13 -10.6 71 71 WSW 9 15 30.31 1027 10 16.0934 0 0
1:56 am 01:56 Clear 19 -7.2 12 -11.1 74 74 SW 9 15 30.31 1026 10 16.0934 0 0
2:56 am 02:56 Clear 18 -7.8 12 -11.1 77 77 SW 7 11 30.31 1027 10 16.0934 0 0
3:56 am 03:56 Clear 20 -6.7 13 -10.6 74 74 W 9 15 30.32 1027 10 16.0934 0 0
4:56 am 04:56 Clear 20 -6.7 14 -10 78 78 W 10 17 30.32 1027 10 16.0934 0 0
5:56 am 05:56 Clear 21 -6.1 14 -10 74 74 W 13 20 30.35 1028 10 16.0934 0 0
6:56 am 06:56 Clear 20 -6.7 14 -10 78 78 W 9 15 30.37 1028 10 16.0934 0 0
7:56 am 07:56 Sunny 21 -6.1 15 -9.4 78 78 W 8 13 30.39 1029 10 16.0934 0 0
8:56 am 08:56 Sunny 24 -4.4 17 -8.3 75 75 WNW 7 11 30.4 1029 10 16.0934 0 0
9:56 am 09:56 Sunny 26 -3.3 17 -8.3 69 69 W 6 9 30.4 1029 10 16.0934 0 0
10:56 am 10:56 Sunny 26 -3.3 17 -8.3 69 69 SW 5 7 30.41 1030 10 16.0934 0 0
11:24 am 11:24 Mostly Cloudy 27 -3 16 -9 64 64 VRB 3 6 30.43 1030 10 16.0934 0 0
11:45 am 11:45 Partly Cloudy 27 -3 18 -8 69 69 SW 3 6 30.43 1030 10 16.0934 0 0
11:56 am 11:56 Partly Cloudy 28 -2.2 17 -8.3 63 63 SW 7 11 30.41 1030 10 16.0934 0 0
12:56 pm 12:56 Mostly Sunny 28 -2.2 18 -7.8 66 66 SW 5 7 30.4 1029 10 16.0934 0 0
1:56 pm 13:56 Sunny 30 -1.1 18 -7.8 61 61 WSW 8 13 30.38 1029 10 16.0934 0 0
2:56 pm 14:56 Sunny 30 -1.1 19 -7.2 64 64 WNW 6 9 30.37 1029 10 16.0934 0 0
3:56 pm 15:56 Sunny 29 -1.7 17 -8.3 61 61 Calm 30.36 1028 10 16.0934 0 0
4:56 pm 16:56 Mostly Sunny 30 -1.1 18 -7.8 61 61 Calm 30.36 1028 10 16.0934 0 0
5:56 pm 17:56 Partly Cloudy 29 -1.7 18 -7.8 63 63 Calm 30.35 1028 10 16.0934 0 0
6:56 pm 18:56 Mostly Cloudy 29 -1.7 21 -6.1 72 72 Calm 30.35 1028 10 16.0934 0 0
7:56 pm 19:56 Mostly Cloudy 28 -2.2 22 -5.6 78 78 E 3 6 30.35 1028 10 16.0934 0 0
8:56 pm 20:56 Cloudy 28 -2.2 23 -5 81 81 ESE 3 6 30.34 1027 10 16.0934 0 0
9:56 pm 21:56 Cloudy 28 -2.2 23 -5 81 81 ESE 5 7 30.33 1027 10 16.0934 0 0
10:56 pm 22:56 Partly Cloudy 25 -3.9 21 -6.1 85 85 ESE 5 7 30.33 1027 10 16.0934 0 0
11:56 pm 23:56 Clear 23 -5 20 -6.7 88 88 ENE 7 11 30.32 1027 10 16.0934 0 0

Powered by AerisWeather